CAPE
1424 1918 2104 2420 2531 2517 2441 2104 2150 2187 2005 1782 1690 1677 1553 1614 1653 1652 1434 1361 1330 1312 1263 1244 1348 1499 1638 1656 1643 1665 1589 1656 1742 1694 1689 1688 1642 1603 1462 1376 1412 1487 1340 1129 978 812 866 1290 1389 1413 1386 1404 1332 1302 1020 964 885 885 748 675 767 628 368 382 413 368 399 447 197 64 38 69 159 112 22 89 234 412 470 545 718 654 661 526 699
1550 1901 2092 2398 2486 2431 2308 2147 2240 2014 1908 1740 1575 1518 1399 1604 1634 1676 1684 1602 1656 1536 1469 1395 1489 1599 1642 1706 1635 1600 1592 1517 1467 1474 1681 1851 1966 1887 1856 2002 2020 1750 1529 1386 1258 1223 1092 1085 1151 1236 1249 1217 1237 1262 1170 1060 972 935 890 822 809 644 500 532 539 526 522 494 488 279 312 221 79 78 63 84 202 260 560 590 707 486 657 756 652
1688 1853 2070 2420 2556 2512 2305 2207 2144 2073 1846 1680 1728 1746 1645 1658 1660 1735 1672 1558 1611 1603 1606 1559 1616 1639 1662 1661 1804 1743 1599 1532 1520 1533 1611 1990 2099 2155 2223 2175 1971 1717 1607 1466 1165 1044 1033 963 990 1041 1103 1149 1158 1165 1128 1120 1048 1027 983 926 731 592 605 678 682 462 448 489 487 258 74 151 230 165 61 66 171 246 489 541 693 687 789 758 558
1616 1782 2136 2333 2500 2214 2190 2279 2035 2123 1925 1887 1847 1800 1759 1766 1704 1706 1814 1769 1758 1758 1720 1654 1654 1689 1661 1724 1767 1704 1698 1614 1614 1621 1628 1680 1805 1774 1818 1755 1634 1525 1429 1342 957 700 567 995 987 1005 1058 1108 1090 1213 1210 1167 1121 1122 1138 1090 771 615 681 612 372 418 377 429 421 302 256 4 44 127 58 36 27 80 107 319 691 595 762 707 715
1614 1920 2306 2254 2163 2222 2257 2150 1933 2188 1922 1890 1886 1935 1885 1840 1730 1815 1875 1850 1790 1810 1788 1686 1598 1596 1603 1574 1530 1577 1581 1665 1648 1692 1681 1707 1765 1652 1671 1551 1570 1565 1516 1392 1271 1075 800 786 815 804 828 916 1100 1197 1191 1200 1141 1136 1124 1164 1091 916 852 744 618 1284 1237 354 272 181 15 6 6 49 90 50 24 32 26 122 527 629 774 811 755
1719 2009 2114 2151 2108 2146 2137 2135 2099 1982 2117 1854 1856 1890 1633 1885 1766 1976 1878 1802 1838 1780 1772 1697 1570 1548 1478 1408 1409 1460 1552 1602 1651 1752 1916 1953 1632 1427 1572 1544 1454 1324 1266 1210 1102 948 960 1054 949 912 881 984 1078 1174 1162 1116 1069 1038 999 994 1030 1003 1085 1056 898 925 1157 490 321 8 6 22 37 71 74 57 50 18 0 4 311 395 618 626 587
1796 1980 2078 2067 1945 2008 2107 2190 2255 2059 1967 1879 1878 2034 2039 1963 1916 1877 2005 1925 1836 1769 1727 1695 1640 1578 1479 1463 1433 1444 1614 1759 1824 1982 2133 2261 1575 1381 1525 1243 1178 1156 1092 1028 928 946 976 993 928 790 958 1135 1070 1030 1052 1023 1041 989 1012 947 1021 956 988 1074 1017 1106 1187 784 15 16 90 11 0 1 72 32 15 118 220 176 157 450 568 591 537
1702 1888 2005 1960 1933 2022 2205 2255 2194 1995 1971 1836 2017 2020 2066 2120 2150 2093 2085 1978 1874 1797 1734 1682 1666 1598 1560 1518 1452 1406 1587 1609 1656 1838 1986 1659 1538 1441 1238 939 934 941 890 870 955 996 951 1024 1023 957 984 1025 1115 1188 1134 1156 1099 1185 1258 1233 1277 1378 1475 1413 1400 1294 1284 541 394 378 236 228 62 9 70 323 304 248 111 27 109 350 391 413 439
1684 1861 1991 1907 1885 2282 2257 2150 2117 2054 1891 2016 2046 2099 2115 2187 2132 2137 2055 1929 1876 1798 1729 1685 1671 1642 1577 1523 1435 1411 1420 1350 1254 1289 1376 1588 1757 1708 1623 1484 1801 1922 1558 1409 1096 1025 1006 978 923 839 966 1150 1279 1339 1386 1345 1397 1484 1529 1502 1406 1374 1482 1687 1371 1309 1084 244 428 354 164 121 35 4 3 28 74 21 26 126 188 127 137 182 393
1758 1827 1903 1934 2133 2280 2099 2138 2174 2084 2029 2144 2209 2160 2150 2232 2194 2115 2062 1954 1813 1776 1708 1704 1739 1644 1595 1483 1436 1408 1288 1238 1194 1116 1043 937 952 1108 1164 1361 1274 1167 1138 1163 1151 996 1068 903 763 1006 1285 1268 1291 1375 1449 1441 1366 1509 1374 1368 1389 1554 1732 1725 828 532 24 52 148 267 375 365 61 44 118 98 138 96 40 32 184 24 31 43 647
1732 1892 1979 2070 2141 2103 2114 2175 2200 2120 2089 2213 2210 2211 2251 2230 2225 2166 1976 1932 1803 1856 1864 1852 1793 1668 1566 1510 1451 1390 1329 1237 1135 1052 978 932 1023 1169 1150 1150 1306 1364 1001 1168 1122 1107 1270 934 997 1227 1340 1345 1342 1322 1371 1426 1240 1428 1420 1465 1517 1784 1985 1448 637 193 250 260 386 353 291 312 7 35 140 63 28 65 79 73 55 41 33 101 290
1725 1950 2035 2083 2239 2018 2161 2200 2166 2213 2202 2216 2137 2199 2241 2225 2199 2127 2079 2046 1981 1960 1905 1854 1810 1712 1655 1542 1523 1453 1395 1343 1222 1114 1062 1020 1016 1093 1093 1133 1117 1071 1076 1147 1213 1320 1261 1154 1337 1276 1231 1157 1128 1196 1338 1402 1352 1436 1505 1598 1606 1808 1918 1410 458 341 359 414 294 211 155 31 10 61 141 116 126 45 48 33 35 26 327 317 309
1761 1922 1990 2015 2016 2121 2153 2166 2273 2302 2233 2247 2191 2188 2239 2289 2251 2178 2101 2074 2063 1956 1876 1839 1810 1849 1868 1742 1593 1491 1443 1382 1370 1371 1302 1234 1167 1117 1105 1081 1080 1078 1117 1224 1440 1463 1454 1377 1335 1299 1228 1197 1259 1265 1261 1223 1310 1399 1540 1699 1657 1872 1778 976 381 427 454 470 326 166 93 50 14 117 117 84 115 116 89 70 66 55 73 125 152
1745 1826 1922 1918 2065 2234 2162 2152 2236 2321 2323 2247 2301 2246 2260 2202 2214 2204 2097 2100 2050 1953 1980 1890 1851 1862 1813 1814 1645 1627 1544 1543 1474 1290 1422 1326 1305 1256 1192 1177 1153 1195 1166 1298 1493 1605 1595 1490 1453 1366 1330 1362 1242 1141 1226 1335 1339 1492 1514 1603 1833 1880 1699 788 489 513 539 416 290 103 162 253 199 303 282 237 184 133 88 65 61 53 28 50 104
1650 1772 1913 2044 2052 2185 2327 2188 2172 2259 2238 2236 2247 2262 2289 2265 2174 2060 2085 2048 2021 1977 1965 1934 1870 1806 1840 1824 1820 1590 1462 1461 1410 1353 1341 1434 1390 1347 1240 1247 1268 1461 1592 1706 1783 1725 1581 1480 1419 1346 1335 1181 1162 1162 1230 1282 1334 1363 1524 1656 1838 2015 1912 923 497 527 529 398 457 409 437 496 642 494 278 70 46 123 68 44 36 35 50 5 1
1654 1832 1944 1943 1985 1951 2082 2221 2252 2205 2185 2225 2274 2328 2259 2148 2089 2105 2122 2065 1967 1913 1882 1833 1792 1798 1768 1772 1774 1643 1618 1486 1450 1380 1391 1383 1429 1411 1476 1467 1497 1504 1547 1706 1761 1625 1529 1506 1403 1388 1351 1224 1175 1203 1105 1170 1385 1479 1377 1763 1882 2135 2286 1390 497 643 590 412 448 492 494 556 727 189 74 122 108 78 110 117 118 77 58 41 26
1710 1807 1850 1879 1938 1929 1981 2124 2218 2254 2246 2248 2280 2254 2163 2071 2071 2016 1968 1946 1908 1851 1838 1791 1745 1754 1748 1799 1807 1794 1704 1578 1383 1370 1324 1337 1338 1518 1455 1410 1400 1376 1447 1485 1498 1476 1462 1425 1386 1371 1350 1171 912 1006 928 1314 1354 1473 1602 1574 1802 2211 2221 1529 743 681 556 651 667 432 452 326 377 281 274 296 252 185 78 58 29 24 32 18 6
1711 1756 1780 1784 1783 1853 1934 2016 2027 1914 1903 1978 2106 2105 2076 2019 1872 1848 1865 1818 1773 1787 1710 1677 1646 1678 1774 1712 1732 1738 1718 1626 1494 1472 1420 1522 1532 1412 1370 1355 1350 1299 1326 1413 1433 1420 1341 1302 1268 1108 1173 1118 977 960 1052 1298 1388 1398 1497 1544 1820 2042 1695 1057 706 654 722 731 702 486 552 772 800 473 318 114 96 150 75 76 45 29 54 27 34
1629 1684 1647 1640 1748 1865 1889 1823 1687 1709 1729 1756 1765 1906 1960 1836 1776 1754 1669 1621 1570 1579 1584 1601 1600 1621 1666 1700 1746 1747 1733 1745 1702 1655 1613 1549 1455 1408 1308 1271 1276 1273 1211 1177 1104 1036 987 1073 1083 1177 1109 945 881 987 1180 1167 1331 1385 1418 1517 1758 1395 1663 687 702 783 784 764 656 633 720 843 761 590 572 461 271 231 189 146 106 57 52 44 26
1481 1488 1507 1576 1671 1681 1662 1609 1583 1608 1626 1603 1667 1651 1676 1884 1757 1622 1541 1654 1659 1512 1449 1477 1621 1616 1683 1690 1613 1665 1634 1641 1775 1775 1663 1580 1498 1397 1414 1320 1187 1183 1175 1103 1061 1028 1035 1039 1024 1033 964 1076 929 1141 1214 1287 1341 1419 1480 1559 1436 1100 888 918 744 780 686 607 574 583 855 952 789 687 610 516 396 232 92 70 83 94 121 113 73
1259 1298 1395 1485 1531 1515 1555 1535 1492 1513 1510 1498 1538 1581 1658 1724 1728 1673 1749 1791 1685 1614 1515 1568 1589 1506 1533 1707 1546 1532 1573 1651 1666 1646 1718 1581 1578 1574 1549 1387 1206 1123 1089 1044 956 975 865 936 924 946 900 900 999 1034 922 866 977 1212 1519 1665 1043 822 803 954 1025 696 640 630 564 644 983 782 794 743 612 464 321 186 176 198 184 164 146 105 125
1051 1178 1347 1423 1442 1468 1402 1433 1448 1457 1397 1390 1469 1511 1437 1499 1486 1526 1590 1642 1689 1624 1402 1535 1610 1487 1532 1464 1457 1450 1453 1430 1536 1686 1488 1687 1579 1614 1563 1367 1235 1114 1052 875 822 788 814 882 844 888 713 718 591 233 233 319 485 759 1213 1664 748 803 951 918 868 647 646 579 597 1010 1102 906 800 748 641 468 369 356 240 183 180 173 148 118 102
1082 1268 1356 1358 1418 1405 1296 1338 1402 1357 1314 1291 1357 1361 1275 1301 1353 1341 1407 1658 1629 1550 1441 1422 1342 1337 1346 1369 1409 1442 1404 1512 1638 1614 1640 1589 1661 1552 1493 1334 1086 1005 897 910 830 879 853 870 892 746 790 527 198 214 219 220 271 515 700 706 670 790 988 1074 730 626 539 540 661 1156 1180 1140 836 671 554 459 545 501 383 310 292 272 132 137 138
1153 1260 1354 1365 1349 1325 1283 1359 1334 1263 1187 1158 1147 1149 1156 1224 1248 1285 1404 1412 1246 1258 1266 1241 1238 1227 1230 1219 1199 1206 1227 1334 1278 1512 1830 1632 1480 1444 1384 1309 1068 910 940 1053 1082 877 1096 871 744 824 192 161 236 283 336 364 379 319 371 664 531 615 904 1013 841 596 583 987 904 1366 1099 947 815 692 569 746 650 573 418 232 211 212 194 166 144
1154 1167 1219 1249 1259 1183 1215 1324 1257 1164 1038 957 946 1019 1088 1119 1134 1191 1260 1222 1228 1249 1201 1194 1190 1117 1114 1068 1005 1057 1244 1345 1331 1272 1376 1363 1321 1309 1228 1162 1034 965 866 751 597 661 632 471 398 246 206 261 328 336 381 366 357 358 378 348 437 479 852 1025 919 700 769 882 1154 1555 1292 1174 851 664 595 537 726 794 552 351 335 259 204 185 125
1068 1106 1135 1121 1114 1104 1103 1140 1069 997 961 852 931 1071 1116 1075 1069 1138 1151 1153 1220 1187 1137 1164 1124 1000 993 1088 1003 1013 1157 1223 1122 1119 1194 1260 1265 1228 1181 1103 1010 912 742 711 691 774 638 572 561 521 402 329 317 312 324 329 306 313 196 6 566 663 817 906 1012 910 811 923 1352 1622 1453 1294 991 676 608 854 937 699 527 336 298 241 158 146 164
1065 1095 1071 1065 1025 1026 990 826 780 811 884 881 999 1112 1066 1036 1066 1065 1050 1111 1143 1167 1146 1120 1037 908 1074 1100 1020 997 985 1025 1039 1004 1019 1117 1170 1095 1089 1020 941 945 802 767 713 720 698 705 561 455 420 382 318 274 264 250 256 330 312 188 690 756 804 815 928 846 961 1047 1566 1446 1326 1297 1092 689 650 1118 773 708 556 289 287 265 200 164 172
1085 1018 1077 1097 1023 969 922 788 672 681 774 862 919 992 1023 992 1037 1027 961 967 1041 1070 1070 1068 1009 928 1024 1095 1072 1008 967 890 866 931 916 886 872 893 986 977 892 855 742 825 722 754 676 622 566 457 426 406 368 296 268 304 245 378 380 336 513 729 844 808 768 766 946 1060 1033 1385 1286 1116 1050 924 624 960 812 591 563 316 337 280 245 207 159
1154 1078 1088 1154 1052 1004 1016 836 763 787 796 794 836 926 944 958 952 981 930 1053 953 938 967 991 1051 925 848 913 1002 984 901 780 839 819 819 876 892 948 929 892 927 945 852 825 816 741 681 632 558 505 482 471 411 383 343 364 258 263 324 268 289 492 732 823 793 687 860 730 660 941 1289 1202 1080 1004 821 605 527 407 493 416 317 268 276 191 181
1230 1123 1144 1190 1117 1115 1080 932 875 879 837 789 850 899 898 903 890 877 929 980 946 1008 1027 932 951 926 836 713 682 842 877 764 726 830 741 844 812 734 803 836 868 814 872 843 788 720 652 612 607 552 469 381 365 420 364 380 218 185 189 186 248 474 626 758 836 569 802 702 619 706 1144 1284 1038 979 972 769 550 451 461 429 358 270 324 248 279
1260 1176 1110 1178 1161 1167 1112 1032 969 932 874 835 860 910 940 909 906 890 1015 939 1004 1053 1049 990 824 746 651 651 641 730 763 704 770 784 730 772 813 635 742 758 818 849 845 867 755 648 576 543 715 536 407 396 385 448 430 263 186 224 260 198 241 378 552 658 637 407 706 689 705 757 1255 1646 1321 1098 842 805 773 544 494 450 345 390 408 471 402
1276 1222 1147 1107 1194 1242 1173 1088 1064 1023 909 862 831 887 943 959 926 891 968 881 921 939 1011 1019 908 782 639 536 585 731 699 693 653 840 855 763 719 573 760 764 704 493 757 818 684 605 475 613 668 568 380 509 546 526 456 211 231 194 306 234 224 217 392 442 447 425 570 737 751 784 1061 1421 1683 1394 1228 687 904 763 518 416 309 507 463 637 715
1375 1275 1143 1135 1288 1274 1201 1158 1131 1090 993 943 880 826 978 967 918 933 964 926 902 887 973 990 931 789 646 537 492 545 574 666 620 689 801 573 528 367 572 682 541 555 672 520 475 437 515 764 786 527 812 768 557 508 426 373 280 245 269 278 192 138 435 537 497 493 462 588 686 791 1080 1204 1405 1371 1146 1103 1088 1209 774 558 328 334 335 754 918
1517 1376 1036 1197 1348 1307 1191 1136 1150 1151 1154 1139 1019 964 984 945 947 1106 1136 1041 1032 1010 985 916 798 664 601 572 502 455 25 358 580 637 685 586 423 74 375 432 594 696 604 590 567 464 675 831 797 837 1014 802 531 466 374 388 326 286 264 282 193 159 252 448 574 626 616 679 743 618 982 1098 788 780 1232 1519 1029 808 1126 859 489 349 251 618 1114
1447 1323 1278 1269 1362 1269 1134 1115 997 1252 1238 1250 1179 1041 1005 1037 1069 1311 1247 1192 1094 1052 824 670 656 608 532 490 504 494 437 429 572 694 663 512 416 444 511 571 728 784 754 818 703 682 617 794 820 752 866 951 686 557 382 355 352 307 228 228 284 264 377 562 686 652 585 680 723 536 897 915 633 772 782 630 769 681 1081 968 527 410 219 1057 1090
1400 1259 1210 1199 1255 1138 1088 1108 1103 1289 1246 1276 1188 1099 1047 1104 1184 1377 1359 1148 875 733 606 611 558 522 641 561 522 554 414 196 475 700 583 544 635 565 611 684 800 845 852 832 746 661 797 832 805 666 962 930 800 589 371 342 318 282 231 196 173 283 441 630 693 674 659 548 579 513 898 832 597 643 862 354 308 656 561 782 834 700 683 235 255
1324 1192 1186 1242 1242 1261 1116 1034 1187 971 904 1110 1004 1000 1006 1178 1304 1404 1203 1119 903 739 698 700 621 740 746 652 626 607 520 456 589 748 578 755 693 634 757 757 838 844 704 563 440 510 740 646 577 764 878 990 842 605 453 420 388 367 290 225 179 272 476 736 878 885 735 827 630 891 873 818 825 1708 494 412 512 606 745 800 685 423 462 639 660
1070 1235 1216 1046 1310 1210 1168 1172 1053 765 795 910 911 1074 1229 1319 1394 1316 1272 1177 1005 1035 1018 999 902 776 736 734 674 521 638 633 708 828 971 818 725 708 817 863 841 786 680 610 641 646 709 645 621 648 731 690 530 452 482 487 492 444 281 200 120 152 391 657 823 828 855 865 864 1055 875 875 1070 800 480 412 540 648 660 742 835 741 659 401 450
953 1124 1028 822 1179 1160 1252 1178 1098 1001 876 936 846 966 1320 1293 1403 1253 1342 1268 1295 1142 1055 1044 946 808 798 753 698 686 707 817 848 1000 961 770 789 940 936 835 783 805 672 752 788 710 796 723 743 699 556 618 566 335 331 536 569 520 405 407 331 240 359 580 808 889 958 974 1066 1044 832 732 757 728 652 549 503 726 720 621 479 374 561 1306 1467
767 890 824 978 1129 1166 1192 1193 1032 1022 990 946 1058 1210 1203 1295 1488 1431 1488 1431 1164 1108 1006 968 932 833 850 836 837 835 798 983 969 996 830 776 755 823 833 787 735 769 756 879 847 807 791 786 776 764 595 515 445 329 338 443 406 419 414 418 502 373 278 449 612 769 888 1007 1081 1054 908 713 715 649 775 768 514 645 651 600 570 571 807 758 689
924 957 996 1131 1152 1123 1217 1217 1218 1244 1217 1105 1182 1376 1336 1351 1378 1466 1401 1368 1164 1105 1028 1008 854 870 904 874 849 780 805 1065 1078 913 770 742 613 658 742 759 759 702 745 652 794 812 766 703 763 781 605 401 361 332 524 566 503 484 509 438 295 323 333 348 359 327 417 748 862 915 937 800 790 650 661 800 646 618 602 564 560 531 494 574 533
889 866 859 888 926 1126 1242 1190 1186 1338 1370 1250 1335 1446 1332 1311 1390 1294 1312 1335 1304 1174 1070 896 848 895 983 993 804 734 852 986 971 918 767 665 735 677 556 571 592 516 564 799 711 654 701 764 775 690 570 346 311 324 425 521 472 405 386 346 322 342 348 327 181 154 346 487 708 729 724 741 729 780 724 649 848 688 569 453 479 502 473 596 499
811 699 683 740 826 940 1171 1084 1091 1197 1036 987 1140 1170 1259 1390 1510 1470 1455 1271 1232 1223 946 788 680 707 807 761 701 667 651 688 735 805 816 769 805 705 624 527 349 509 638 826 764 745 740 800 797 663 694 516 546 546 272 878 398 390 376 21 26 0 0 178 0 14 298 434 472 555 537 503 564 559 652 744 668 661 494 424 331 453 589 319 416
460 596 680 784 773 854 1016 982 997 1040 1003 1149 1231 1277 1312 1276 1216 1200 1028 907 816 880 704 608 546 622 638 569 618 680 684 702 774 769 687 710 783 779 699 536 653 581 615 633 709 600 652 799 734 626 510 87 462 670 798 798 383 300 308 238 0 0 0 16 0 66 40 112 180 320 200 421 511 536 753 710 702 621 473 446 400 371 294 364 299
644 849 790 880 873 891 875 818 892 1167 1292 1252 1196 1100 1094 884 653 544 537 458 237 256 324 363 237 250 15 51 346 524 605 649 646 591 578 584 724 801 728 734 758 806 650 596 653 716 604 676 775 562 174 8 577 706 686 712 425 429 19 0 14 0 0 0 0 122 106 185 132 216 362 350 520 520 529 528 501 450 463 412 424 417 453 337 286
1130 910 857 863 728 712 710 767 1043 1390 1346 1174 1076 1036 946 526 417 403 408 392 342 293 262 20 39 20 15 29 0 0 368 464 422 376 442 446 461 581 636 597 743 740 582 505 585 735 702 420 573 548 428 504 526 566 588 513 445 424 383 482 16 46 0 0 0 17 154 242 215 196 255 264 384 437 438 377 370 351 188 170 76 224 317 333 313
1123 990 759 700 632 674 680 868 1140 1318 1206 1078 1045 898 621 336 424 402 385 371 347 300 62 55 3 2 203 192 0 0 111 0 0 0 0 49 114 449 475 512 598 571 490 484 490 758 632 500 675 647 518 524 450 498 481 543 422 303 423 446 433 41 0 0 0 80 92 201 271 253 331 344 232 167 144 135 157 191 179 137 112 131 155 166 30
1116 1062 717 672 730 815 794 895 1035 1071 1013 1043 894 640 431 290 352 289 329 377 262 61 278 297 0 0 0 0 0 0 0 0 0 0 0 4 101 332 320 496 540 339 280 285 406 618 604 636 695 688 468 392 359 422 570 497 321 325 498 463 142 35 34 0 0 0 0 2 201 220 305 347 285 229 243 231 225 204 203 235 274 257 243 199 160
1123 920 896 840 841 911 879 853 700 553 943 940 706 540 416 195 296 227 328 289 118 268 320 106 0 0 137 0 0 0 0 0 0 0 0 0 0 0 0 0 0 2 14 3 360 393 341 342 400 460 426 280 333 478 587 456 307 346 478 514 388 363 237 210 0 0 0 9 249 303 238 323 325 284 212 226 240 164 101 84 64 34 0 0 0
1082 1070 1002 981 978 929 794 630 570 663 921 778 604 534 411 344 294 255 314 296 88 0 0 0 0 46 148 0 0 0 0 0 0 0 0 0 0 0 0 0 0 1 15 367 412 433 396 411 474 544 493 385 298 370 411 303 331 371 517 511 378 237 3 18 17 0 0 0 183 270 222 226 310 296 270 226 115 75 69 0 0 0 0 0 0
1200 1212 1114 1033 1043 1042 946 851 690 743 752 694 614 568 425 392 351 343 399 176 0 0 0 0 0 0 0 0 0 0 0 0 0 0 0 0 0 0 0 0 0 20 0 408 433 408 426 497 530 450 283 291 387 393 317 338 317 334 347 414 350 2 16 14 7 0 0 0 80 129 131 138 207 208 256 110 58 43 0 0 0 0 0 0 0
Wind_Speed
18 28 28 29 31 34 37 38 39 39 40 40 41 42 43 43 42 39 37 35 35 36 35 34 33 33 32 33 35 34 34 33 31 31 29 29 28 27 27 26 27 26 26 25 24 25 25 25 26 26 26 26 26 26 25 24 23 22 21 21 20 19 19 20 20 20 22 22 21 nan nan nan 18 19 nan nan 20 19 19 18 16 10 8 10 15
25 25 24 24 30 33 35 37 37 38 39 40 41 42 44 42 41 39 38 36 36 36 35 34 34 33 33 33 34 34 33 31 30 29 28 28 27 27 27 27 27 27 26 25 25 24 25 25 25 25 25 25 25 24 23 23 22 21 20 19 19 19 17 18 19 19 20 20 21 21 21 21 nan nan nan nan 20 20 19 19 17 11 8 14 16
29 25 22 25 33 35 36 36 37 38 38 39 41 42 43 42 40 38 37 36 35 35 34 33 33 33 33 33 33 33 32 31 29 28 27 28 27 28 28 27 27 27 25 25 25 24 24 24 24 23 24 23 23 23 23 23 22 20 19 18 18 17 17 18 18 19 18 18 19 20 nan 21 20 20 nan nan 20 20 20 17 18 14 11 17 15
33 26 24 29 35 36 35 35 36 38 38 39 40 41 42 40 38 38 37 35 34 35 35 34 33 32 33 33 33 34 32 30 28 27 26 26 27 29 28 26 26 26 25 25 24 23 24 23 23 22 22 22 22 22 23 22 21 19 19 18 17 16 16 17 18 19 18 16 16 14 10 nan nan 20 nan nan nan nan 21 18 20 18 19 18 18
35 30 29 28 29 32 34 35 36 38 39 40 41 43 42 39 38 37 36 34 33 33 34 34 34 34 34 35 35 34 32 30 27 26 26 27 26 28 27 26 26 25 25 25 24 24 23 22 22 22 21 21 21 21 22 21 20 19 18 17 16 12 13 14 16 16 16 14 13 11 nan nan nan nan nan nan nan nan nan 16 19 18 18 19 19
37 34 33 31 29 30 35 36 38 39 40 41 42 42 41 39 38 37 36 35 34 33 33 34 35 34 35 36 35 34 32 29 26 24 22 21 21 25 26 25 25 25 25 24 22 22 22 22 21 19 19 20 20 20 19 19 19 18 17 16 14 12 9 6 5 6 13 12 12 nan nan nan nan nan nan nan nan nan nan nan 21 20 20 21 20
42 37 36 34 31 30 35 37 39 40 41 43 43 42 40 38 37 37 36 36 35 34 34 34 35 36 36 36 36 35 32 28 25 22 20 17 20 22 26 24 25 25 24 23 22 22 21 21 20 18 19 19 19 19 19 19 18 17 16 15 14 11 9 6 4 3 9 7 nan nan nan nan nan nan nan nan nan 20 21 19 18 20 20 20 19
42 40 38 35 32 33 36 38 40 42 43 44 42 40 39 38 37 37 37 37 35 35 34 34 36 36 36 36 36 35 32 29 27 25 23 23 22 20 21 23 24 24 23 22 21 22 21 20 19 18 18 18 18 18 18 18 17 16 15 14 13 11 9 6 4 1 8 7 7 8 10 10 nan nan nan 23 24 23 22 nan 18 19 21 20 18
44 42 40 37 34 37 37 39 41 44 43 42 41 39 38 38 37 37 38 37 36 35 35 35 36 36 36 36 36 34 33 31 30 28 25 23 21 20 21 22 23 25 25 23 22 21 21 20 18 17 18 18 17 17 17 16 15 15 15 14 13 12 9 9 9 14 10 6 7 8 10 10 nan nan nan nan nan nan nan 18 18 20 19 18 19
43 41 40 36 34 37 39 40 41 43 42 41 38 38 38 37 38 39 38 37 36 35 35 35 36 36 36 36 36 35 34 33 31 29 25 25 23 21 21 21 24 27 26 24 23 23 21 19 19 18 18 17 16 15 14 14 14 14 15 14 14 13 13 14 16 13 nan nan 8 9 9 11 nan nan 20 nan 22 nan nan nan 18 nan nan nan 20
40 38 37 35 35 38 39 39 40 40 40 38 37 38 37 38 39 39 38 36 36 35 35 36 36 36 36 36 36 36 35 34 32 30 26 25 23 21 22 22 23 23 25 24 23 23 22 20 19 18 17 15 15 14 13 12 12 13 14 14 15 15 15 17 14 10 8 10 10 9 13 16 nan nan 21 nan nan nan nan nan nan nan nan 19 20
35 34 34 33 36 37 38 38 38 36 37 36 37 38 38 39 39 38 37 36 36 35 35 35 35 35 35 36 36 35 35 33 32 30 28 26 25 24 23 23 24 24 25 25 24 24 22 21 19 18 17 15 13 13 12 11 12 13 13 15 16 17 17 16 12 10 8 10 12 9 9 nan nan nan 23 23 24 nan nan nan nan nan 21 21 21
31 31 31 31 32 35 36 36 35 34 35 36 37 38 39 39 38 37 36 34 34 35 35 36 35 33 34 35 35 34 33 32 31 29 28 26 26 24 24 25 25 25 26 26 26 24 22 21 20 18 15 14 13 12 12 12 12 13 14 16 17 18 17 17 11 10 9 10 10 9 nan nan nan 20 21 nan 22 23 nan nan nan nan nan 22 20
28 29 30 30 29 35 34 33 32 33 34 35 36 36 37 37 37 35 34 33 34 35 34 35 35 35 35 34 35 32 30 29 28 28 27 26 26 24 25 26 25 25 25 26 26 25 22 21 20 17 15 14 13 12 12 12 12 12 14 16 18 18 19 15 12 11 10 10 10 9 9 9 10 18 20 21 21 22 nan nan nan nan nan nan 22
28 29 29 29 29 28 33 32 31 33 34 35 35 35 35 34 34 34 34 35 36 35 35 35 35 35 34 33 33 32 30 29 28 27 26 26 26 24 24 26 26 26 26 26 28 25 23 21 20 18 16 14 12 11 11 11 11 13 14 17 19 19 19 13 11 11 10 11 10 10 9 9 16 18 20 nan nan 22 nan nan nan nan nan nan nan
29 28 28 26 26 25 26 30 31 33 34 35 34 33 33 33 34 35 34 34 34 33 32 33 33 33 32 31 31 30 29 28 27 26 25 26 26 25 25 28 28 26 25 26 26 24 22 21 20 19 18 14 12 11 11 11 13 14 15 18 19 19 19 14 12 12 11 11 11 10 10 11 18 18 nan 20 21 nan 21 22 22 nan nan nan nan
28 26 26 26 24 24 24 24 28 35 34 33 32 32 32 34 35 35 35 35 33 32 33 32 32 31 31 30 29 27 27 27 26 25 24 25 25 25 26 29 28 25 24 25 24 23 23 22 22 20 18 15 13 12 12 12 14 15 16 19 20 18 17 16 13 13 12 10 11 11 10 11 16 18 18 19 21 21 nan nan nan nan nan nan nan
26 24 24 25 25 26 25 25 28 29 28 31 32 32 33 34 34 34 34 33 32 32 32 31 30 30 30 29 27 27 26 25 23 23 24 25 25 24 25 27 26 24 24 25 25 23 23 23 23 20 18 16 14 12 13 13 15 15 16 18 19 18 20 20 15 13 13 12 11 11 11 13 16 16 18 19 nan 20 nan nan nan nan nan nan nan
25 24 24 26 27 27 27 27 27 26 26 25 25 30 35 33 33 33 31 31 31 32 32 31 30 29 29 28 26 27 25 23 22 23 23 24 25 23 23 24 23 23 24 24 23 21 21 20 20 19 17 16 15 14 13 14 15 15 15 17 20 18 20 20 17 15 14 13 11 12 12 15 14 17 18 18 18 19 20 20 20 nan nan nan nan
24 24 25 27 27 27 26 26 25 25 25 25 26 26 32 33 33 32 30 29 30 31 31 31 30 28 28 27 27 24 22 19 22 19 22 22 20 19 23 23 25 25 23 21 20 19 18 18 19 19 18 17 16 15 14 14 15 14 14 15 20 16 16 18 18 18 16 14 12 12 13 14 16 17 17 17 17 18 nan nan nan nan 19 20 nan
24 25 25 26 26 26 26 25 24 25 26 26 25 26 29 33 31 31 29 29 30 31 31 29 27 27 26 26 25 22 18 15 15 15 20 17 19 22 22 26 29 27 22 19 17 16 16 17 18 18 17 16 16 16 15 14 14 13 12 13 19 14 18 20 19 18 17 15 14 13 16 16 17 17 17 16 16 16 18 19 18 19 19 19 20
24 25 25 24 25 25 25 25 24 26 26 25 24 25 27 28 23 22 21 24 27 29 27 23 25 22 26 24 22 20 17 14 14 17 15 18 19 20 22 27 28 23 20 18 16 16 16 17 18 18 18 18 18 18 17 17 16 14 13 15 17 14 19 20 18 18 18 16 14 15 18 17 17 17 17 16 16 17 16 16 18 19 19 19 19
25 24 22 23 23 23 24 24 25 26 27 25 25 26 27 24 21 20 20 24 24 24 23 24 22 22 23 22 21 19 16 15 15 16 17 21 17 19 23 25 21 18 18 17 17 17 16 18 19 19 20 19 20 20 20 20 20 20 19 20 17 12 16 19 18 18 19 17 16 19 18 18 18 17 16 17 17 17 17 17 18 19 19 20 20
24 22 22 22 23 22 24 24 25 26 26 24 24 24 24 22 21 22 22 23 22 21 21 20 20 21 21 20 20 18 16 15 15 19 19 16 14 16 20 19 18 17 18 17 17 16 19 21 20 21 20 20 22 23 23 24 23 20 21 21 17 12 14 18 18 19 18 18 17 20 20 20 18 16 16 19 17 17 17 16 18 19 19 20 21
23 24 23 24 24 24 25 24 25 26 26 24 23 21 21 22 23 24 25 23 21 20 18 18 19 19 20 19 19 17 17 17 17 16 14 14 12 11 13 14 13 14 16 16 16 17 19 19 19 19 19 21 24 24 25 25 23 21 20 21 18 13 15 17 19 19 19 19 18 21 21 20 19 17 17 18 19 18 18 18 18 19 20 20 21
25 25 26 26 26 25 25 25 25 25 26 24 22 22 23 24 25 25 25 22 19 18 18 17 17 17 18 18 18 17 16 17 19 18 15 14 11 10 11 12 12 13 15 16 17 18 19 18 19 20 19 20 22 23 23 23 22 21 22 nan 23 21 21 20 20 22 23 22 20 21 21 20 19 18 17 20 21 19 20 19 19 19 19 20 21
26 27 28 28 27 26 25 27 27 26 25 23 22 22 23 24 24 23 24 20 18 18 17 15 14 13 14 14 15 14 14 14 16 16 14 11 10 10 11 11 12 13 14 16 16 16 17 18 18 18 18 19 20 21 22 22 21 22 24 25 24 23 23 21 22 24 25 25 23 23 21 20 18 17 19 22 20 20 21 20 20 20 20 20 21
28 29 29 30 27 27 27 28 28 27 24 22 22 21 22 23 21 22 20 19 17 15 14 12 12 11 10 11 11 11 10 10 10 12 11 11 11 11 11 11 12 12 13 15 16 15 15 15 16 17 18 19 20 20 21 21 20 23 25 25 24 23 22 22 22 25 26 25 23 22 20 18 17 17 16 21 21 20 20 21 20 20 20 20 21
30 29 29 30 29 28 28 28 28 26 24 23 21 21 21 19 17 18 17 16 14 13 12 11 10 9 8 8 8 8 7 7 8 9 11 11 10 11 11 10 10 10 12 13 14 14 13 13 15 17 18 20 20 20 19 19 20 23 25 26 25 23 22 22 22 24 24 21 17 16 17 15 15 15 16 18 19 18 20 20 20 21 21 22 21
29 31 30 30 30 30 29 28 28 27 25 23 21 21 17 15 14 15 13 12 11 10 11 10 8 8 8 7 7 6 7 8 9 10 11 9 8 8 9 8 8 8 10 10 10 11 12 12 14 16 18 18 18 17 17 17 19 21 23 24 23 22 21 20 20 20 21 19 15 16 17 15 14 14 13 17 19 19 20 19 19 20 21 21 21
31 31 31 31 31 31 29 27 28 27 24 22 21 19 16 15 14 14 12 11 9 9 10 9 9 9 8 8 7 6 8 8 9 9 9 7 6 6 6 7 7 7 8 9 8 9 10 11 12 14 16 16 17 14 14 15 18 21 22 23 21 20 18 17 19 19 18 17 18 19 17 13 12 13 14 15 19 20 20 19 18 19 19 19 20
30 31 32 33 32 30 29 28 28 27 24 22 20 19 17 15 14 14 12 9 7 7 8 8 9 9 8 7 6 7 8 7 8 8 6 5 4 5 5 7 6 6 8 9 9 8 9 9 10 12 13 14 14 15 13 15 17 18 19 21 20 17 15 15 17 16 14 15 17 17 15 13 11 12 13 13 16 20 18 18 18 19 18 17 18
30 33 35 34 31 29 29 28 28 27 24 22 19 18 17 15 15 14 10 8 8 9 8 8 8 8 7 6 6 8 7 7 6 5 4 4 4 5 5 6 6 7 7 8 8 7 8 8 8 10 10 11 13 14 13 12 14 15 17 19 19 16 13 13 14 13 12 15 15 12 14 15 15 14 13 13 20 17 18 17 17 16 16 16 18
34 35 37 34 27 25 25 26 27 27 22 20 19 17 16 15 14 12 10 9 9 10 9 9 8 7 7 6 6 7 nan 6 6 5 5 4 4 nan 6 5 6 7 7 8 9 7 7 7 7 8 9 10 11 12 12 13 13 14 17 18 17 13 10 10 11 11 11 12 14 16 16 15 15 15 15 19 19 17 18 17 16 15 15 19 19
35 36 33 28 23 25 25 26 25 21 17 17 17 16 15 16 13 11 11 11 10 9 9 9 10 8 7 7 6 7 8 7 5 5 5 4 5 7 6 6 7 8 9 8 9 6 6 7 9 10 8 8 9 9 10 12 14 15 16 17 15 10 8 8 10 11 9 10 12 11 14 14 13 15 16 16 17 16 17 15 17 15 17 19 17
38 37 31 29 26 25 22 25 22 19 18 17 15 15 15 14 13 13 13 12 10 9 9 9 10 8 7 7 6 7 7 5 4 4 6 5 6 7 6 7 9 9 9 8 8 9 7 8 7 9 9 8 9 8 9 11 13 14 15 18 15 10 8 8 9 11 9 9 9 10 11 11 13 14 15 14 13 13 17 17 15 14 14 16 17
37 35 33 30 27 25 24 25 21 16 18 16 14 13 13 14 14 14 13 12 11 10 9 10 10 9 8 7 6 6 6 5 5 5 7 7 8 8 8 10 10 10 9 9 9 9 9 8 6 7 8 9 7 8 8 9 10 12 14 15 13 12 11 11 11 11 8 9 8 8 9 11 11 13 12 12 12 13 16 18 18 17 16 15 13
35 35 34 30 25 23 22 23 19 16 14 14 13 13 12 12 12 12 11 11 10 9 10 10 10 10 8 6 6 5 5 6 7 8 9 8 8 9 10 11 11 10 10 10 9 9 8 8 7 6 8 9 7 7 6 6 7 9 10 11 12 14 13 12 13 12 9 9 10 10 10 11 13 11 10 11 12 13 15 17 18 16 15 14 14
32 30 27 24 22 20 20 22 20 16 12 10 13 14 11 9 10 10 11 10 10 10 11 12 12 11 8 7 6 5 6 8 9 9 11 11 10 10 11 10 11 11 11 10 9 9 9 8 8 7 9 10 8 6 5 5 7 8 7 6 8 11 11 11 13 14 13 12 13 12 14 14 13 12 12 12 12 14 16 16 16 13 11 15 16
30 27 23 21 17 16 15 17 17 15 12 11 13 14 12 10 11 10 10 10 11 11 12 12 13 11 8 8 7 7 6 7 8 9 11 12 11 10 11 10 11 11 11 10 9 8 9 10 9 9 10 10 8 7 6 7 9 9 7 8 10 11 12 12 13 12 12 13 13 13 14 15 15 13 13 12 12 14 16 14 14 13 12 14 16
29 22 16 13 15 12 14 16 15 15 15 15 13 14 14 11 9 7 7 10 11 13 13 12 11 10 9 7 7 6 5 6 7 8 10 12 12 10 10 10 10 10 10 8 7 8 8 9 9 9 10 10 8 7 5 6 9 8 9 11 11 11 12 12 12 12 12 11 11 11 13 14 12 12 11 10 11 12 12 12 12 12 12 11 11
29 23 15 13 15 16 17 18 16 14 13 14 13 14 10 5 6 6 8 13 15 16 13 11 9 9 7 7 7 7 6 6 7 8 9 11 10 9 9 9 9 9 9 7 7 8 9 10 10 11 10 9 8 7 4 6 8 6 7 8 10 9 9 10 11 11 10 9 9 11 11 12 12 10 8 9 9 11 10 11 11 11 10 9 10
33 27 22 23 23 20 16 15 15 13 11 10 10 9 4 1 5 6 11 12 13 13 12 10 8 7 6 7 7 7 7 8 8 9 10 10 9 8 8 9 9 9 9 8 8 8 8 9 10 12 12 9 10 8 6 5 7 7 8 nan nan nan nan 9 nan nan 9 10 10 10 11 11 11 10 9 10 11 11 11 10 11 10 11 7 8
31 28 25 26 24 20 17 15 13 12 11 9 8 6 8 8 10 11 13 13 11 12 12 10 9 8 7 7 8 8 9 10 10 10 9 9 8 7 7 8 8 8 10 9 8 7 8 8 9 10 12 nan 9 9 7 7 7 9 7 7 nan nan nan nan nan nan nan 12 12 11 11 11 11 10 8 10 11 11 11 11 12 12 10 7 10
32 30 28 26 23 21 19 17 13 11 10 9 8 10 15 17 15 15 16 16 15 14 14 11 9 8 nan nan 8 10 11 12 11 11 9 7 7 7 8 8 9 9 9 10 9 7 6 6 6 8 9 nan 10 9 8 10 10 6 nan nan nan nan nan nan nan 11 11 12 12 11 12 11 11 10 10 12 12 12 12 14 13 13 14 13 14
31 29 29 28 26 22 19 16 12 10 10 10 10 12 14 16 16 17 17 15 14 14 13 nan nan nan nan nan nan nan 13 13 12 11 8 8 6 7 8 9 10 11 10 10 12 12 10 8 5 7 7 7 11 11 10 9 10 10 6 5 nan nan nan nan nan nan 10 12 12 11 12 12 12 13 13 13 14 14 13 15 nan 15 15 15 15
28 27 27 26 26 24 20 16 13 12 12 11 11 11 13 14 16 16 15 15 14 11 nan nan nan nan 11 14 nan nan 15 nan nan nan nan nan 7 9 8 9 11 12 11 14 14 13 12 10 9 9 8 9 10 10 12 9 9 9 8 7 8 nan nan nan nan nan nan 10 12 13 13 13 13 14 14 14 16 16 16 16 16 15 15 15 nan
26 26 26 26 27 24 20 16 13 13 12 11 11 10 15 16 16 15 13 14 13 nan 11 10 nan nan nan nan nan nan nan nan nan nan nan nan 10 9 10 11 12 11 12 13 14 14 14 13 12 11 11 10 10 12 10 10 12 9 9 11 12 nan nan nan nan nan nan nan 14 14 15 14 14 14 14 14 16 17 18 17 16 15 14 15 15
26 26 26 24 23 21 19 16 14 13 12 11 11 11 15 16 15 13 13 12 13 12 11 12 nan nan 15 nan nan nan nan nan nan nan nan nan nan nan nan nan nan nan nan nan 15 15 14 13 12 12 11 10 10 10 12 9 11 11 12 11 14 13 13 13 nan nan nan nan 15 14 14 13 14 14 14 15 15 16 16 nan nan nan nan nan nan
26 25 22 19 17 18 17 16 13 12 11 11 11 11 13 15 15 12 12 12 nan nan nan nan nan nan 14 nan nan nan nan nan nan nan nan nan nan nan nan nan nan nan nan 17 16 16 15 14 13 12 11 11 9 10 11 10 10 11 12 13 14 14 nan nan nan nan nan nan 17 15 13 13 14 13 14 15 16 nan nan nan nan nan nan nan nan
23 23 22 21 17 13 14 13 11 11 10 11 11 10 12 13 13 12 13 14 nan nan nan nan nan nan nan nan nan nan nan nan nan nan nan nan nan nan nan nan nan nan nan 17 16 15 15 15 14 14 13 11 10 10 11 10 10 11 12 14 14 nan nan nan nan nan nan nan nan 14 13 12 15 17 15 17 nan nan nan nan nan nan nan nan nan
Wind_Direction
284 290 289 294 288 284 284 287 288 288 289 290 291 292 293 295 297 297 296 296 297 297 299 301 299 298 297 299 300 301 300 297 293 292 291 291 294 296 298 297 297 298 296 295 292 291 293 293 292 291 287 285 284 282 280 279 279 281 280 280 279 275 273 270 265 260 253 255 252 nan nan nan 244 248 nan nan 238 234 231 232 225 207 201 243 250
287 285 290 292 291 287 285 286 287 289 289 290 291 293 295 297 298 297 297 297 298 299 299 299 299 299 298 299 300 301 300 297 294 292 292 292 294 297 299 299 300 299 297 296 294 293 293 293 291 289 288 286 284 282 280 279 279 277 278 276 276 277 276 268 267 263 258 256 254 249 241 238 nan nan nan nan 239 237 235 235 235 210 194 243 250
282 284 287 292 293 288 285 287 288 289 289 290 292 294 296 298 298 297 297 299 300 300 299 299 299 299 300 301 302 303 303 301 297 293 291 290 290 293 295 296 296 297 296 295 294 295 293 292 293 291 288 285 283 282 281 277 275 275 276 277 279 281 279 276 272 265 258 255 251 249 nan 243 246 248 nan nan 240 235 236 237 240 233 222 237 242
287 285 284 291 291 288 286 287 288 288 289 290 292 294 297 297 297 297 297 299 301 301 300 300 300 302 303 303 305 306 306 303 299 296 293 290 290 289 290 292 294 294 295 295 294 295 291 290 290 289 287 285 282 279 277 276 273 272 271 272 278 282 280 282 282 272 261 259 252 246 231 nan nan 247 nan nan nan nan 223 233 240 235 237 232 237
283 282 283 281 284 287 287 287 288 288 290 291 293 295 297 297 296 297 298 299 300 299 299 300 301 303 305 305 307 308 306 303 301 297 293 291 291 290 289 290 292 294 295 294 292 292 290 289 287 287 287 286 281 277 276 275 274 272 273 274 277 276 290 293 294 268 239 256 251 244 nan nan nan nan nan nan nan nan nan 231 236 238 237 239 236
280 278 278 277 279 284 287 287 289 290 291 293 295 297 298 297 297 298 300 300 300 300 301 302 302 304 306 306 307 308 307 303 301 297 295 294 290 289 288 288 292 294 295 294 292 290 290 287 286 286 286 282 278 275 273 272 270 270 272 273 272 274 274 253 294 236 242 247 245 nan nan nan nan nan nan nan nan nan nan nan 229 228 232 236 235
277 276 276 276 276 281 285 287 289 290 292 294 296 297 298 298 299 301 301 301 301 302 302 303 304 304 304 306 307 307 305 303 301 295 289 285 282 284 290 289 291 295 296 293 291 289 289 289 288 288 284 278 274 272 271 269 266 265 262 263 263 255 250 235 231 258 253 262 nan nan nan nan nan nan nan nan nan 242 235 235 233 228 230 232 234
274 274 274 274 275 282 286 287 290 292 293 295 297 298 299 300 301 302 301 301 301 302 302 303 303 302 302 302 304 305 302 298 294 288 283 279 281 282 280 285 291 296 292 290 290 289 289 289 288 285 280 275 272 270 268 263 261 258 254 252 248 245 233 218 211 188 286 270 259 250 243 242 nan nan nan 240 235 240 238 nan 231 229 231 232 231
272 274 273 273 276 285 286 288 290 292 294 297 299 300 300 301 302 301 300 301 302 301 301 301 300 300 300 300 300 300 297 295 291 286 282 279 280 279 268 265 272 279 282 283 285 288 288 286 284 282 276 270 266 262 259 255 251 249 246 243 238 236 224 206 221 279 280 270 263 256 248 244 nan nan nan nan nan nan nan 227 224 230 234 235 236
269 270 272 272 276 285 287 289 290 293 297 299 299 301 302 301 301 301 301 301 301 300 299 299 298 298 298 299 300 298 296 294 292 289 288 287 285 279 272 271 280 283 285 288 291 291 290 286 282 278 270 265 260 255 249 246 239 239 239 237 236 231 223 228 250 262 nan nan 264 260 256 255 nan nan 257 nan 251 nan nan nan 231 nan nan nan 244
270 269 270 273 279 285 288 289 291 295 298 299 300 301 300 301 300 300 301 300 298 297 297 298 298 298 298 300 300 298 296 296 296 295 293 290 287 282 275 275 277 283 289 289 289 289 289 285 282 274 268 262 258 251 245 238 233 233 233 234 232 230 229 249 258 260 263 269 266 264 267 261 nan nan 259 nan nan nan nan nan nan nan nan 239 235
272 271 270 272 282 284 286 288 292 295 298 299 301 300 300 300 299 299 298 297 296 296 296 296 296 296 296 298 298 296 295 295 296 297 294 290 286 284 283 281 280 279 283 286 286 287 286 285 283 276 267 262 254 249 241 235 230 226 227 230 230 228 231 254 266 266 264 269 269 266 263 nan nan nan 262 260 257 nan nan nan nan nan 239 240 240
275 272 268 269 273 282 285 290 293 296 299 300 300 299 299 298 297 297 295 294 295 295 295 294 293 292 292 294 294 293 293 294 295 294 293 289 284 283 286 287 285 284 285 286 288 287 282 282 279 274 270 263 253 245 235 230 224 221 220 225 228 228 233 265 268 267 264 264 266 265 nan nan nan 265 264 nan 259 256 nan nan nan nan nan 239 240
271 267 266 269 274 286 290 294 297 299 300 298 297 297 297 297 296 295 294 293 293 292 291 292 291 291 291 290 289 289 290 291 293 294 291 287 284 284 285 286 284 285 288 290 291 289 284 282 282 277 269 257 251 240 231 226 223 220 220 227 230 231 236 257 265 263 262 262 257 256 256 260 264 272 272 268 263 263 nan nan nan nan nan nan 239
272 271 271 275 281 287 297 298 299 298 295 292 292 294 296 295 295 295 294 294 292 291 291 291 290 291 290 287 286 287 288 289 289 290 289 286 284 282 283 284 285 287 290 292 292 287 280 277 275 273 265 258 251 246 234 227 223 220 220 227 231 233 242 250 258 259 261 262 253 249 249 253 273 270 267 nan nan 257 nan nan nan nan nan nan nan
270 272 274 277 282 287 288 296 296 293 290 290 292 294 293 293 294 294 292 291 291 291 290 290 289 287 285 284 285 285 283 285 285 284 285 286 286 285 287 287 288 290 294 293 290 285 280 274 272 269 263 254 246 244 238 228 224 221 221 229 231 233 244 254 258 255 255 255 256 246 244 253 275 276 nan 266 265 nan 261 258 256 nan nan nan nan
271 273 277 279 282 281 281 281 286 289 286 287 289 291 292 293 293 293 292 292 291 291 291 289 287 286 284 284 283 281 280 281 284 282 282 283 283 287 290 290 292 295 295 292 289 284 279 275 271 266 261 255 240 231 230 227 225 222 223 229 229 228 248 269 260 255 257 252 257 253 246 244 266 269 272 274 274 272 nan nan nan nan nan nan nan
269 274 273 273 276 276 273 275 280 280 285 290 292 293 294 293 293 293 292 293 292 290 287 285 285 285 284 284 282 280 278 279 282 282 280 278 279 282 286 289 293 296 294 290 285 280 278 275 269 262 255 252 246 233 226 228 227 224 225 232 233 231 248 268 259 253 254 254 250 251 247 261 270 275 279 275 nan 274 nan nan nan nan nan nan nan
271 272 265 263 269 272 271 271 273 278 284 285 289 295 295 294 294 293 293 292 292 290 285 283 284 284 285 285 284 281 280 281 283 281 280 279 280 279 284 288 292 291 289 288 283 277 274 270 268 257 250 251 245 240 228 226 227 225 225 232 239 238 246 260 259 254 248 250 249 248 251 270 271 272 275 278 279 278 277 277 275 nan nan nan nan
266 268 262 259 264 267 269 272 275 279 282 285 288 290 294 292 292 294 297 293 289 287 286 286 284 282 284 284 284 281 281 285 286 280 282 281 279 281 287 288 286 284 282 279 274 270 267 265 258 252 247 246 247 243 235 230 230 226 226 232 244 248 245 259 259 257 255 254 252 249 263 270 270 272 273 275 279 282 nan nan nan nan 268 265 nan
257 256 255 258 261 266 269 272 276 277 280 282 284 285 293 293 292 294 293 289 288 289 290 287 280 277 277 276 271 269 273 278 278 274 280 275 280 284 287 288 285 283 279 273 268 264 264 259 255 253 249 246 247 246 241 237 235 234 233 238 251 241 251 253 254 258 256 254 252 255 274 275 272 269 269 272 273 272 276 279 282 281 277 273 268
255 252 254 258 261 265 271 273 276 279 281 281 281 284 288 290 289 285 282 285 289 289 285 277 275 268 272 265 265 267 270 270 271 278 274 277 278 286 289 287 282 276 272 269 266 265 262 257 254 251 248 245 244 252 249 240 231 228 229 239 254 242 255 258 254 256 256 252 249 261 275 271 270 270 270 271 271 272 274 276 276 275 273 272 272
258 255 258 265 264 268 271 274 279 280 281 280 282 282 281 282 282 280 282 287 288 284 279 272 267 266 261 259 261 262 260 256 262 276 279 284 278 285 286 282 274 270 269 269 266 266 263 256 246 244 243 242 247 247 247 243 237 225 231 240 246 238 257 258 253 251 252 251 248 269 269 268 270 269 271 268 266 269 270 272 274 275 276 276 276
263 262 265 268 269 270 272 275 280 280 279 279 279 281 281 280 278 275 278 281 284 282 279 274 265 259 257 256 256 252 244 243 266 280 281 273 275 280 278 273 270 270 269 260 263 262 253 243 239 244 243 246 250 249 249 248 244 241 246 248 253 239 248 260 254 247 245 248 250 269 267 268 267 267 265 266 265 264 264 265 269 271 273 274 272
265 266 267 269 270 270 271 273 278 279 281 282 283 285 284 278 273 276 281 285 285 283 276 266 259 255 253 252 247 242 242 246 250 253 256 266 258 246 250 252 256 259 261 256 255 250 249 245 243 243 244 247 246 244 246 248 249 249 248 247 254 247 244 252 251 246 240 240 244 262 263 261 263 264 262 262 261 260 259 260 265 269 270 271 271
267 268 271 271 269 270 272 274 279 282 285 288 287 285 282 277 278 281 283 283 284 280 270 262 259 255 253 249 242 242 247 251 249 252 252 251 244 243 257 265 267 269 265 260 256 256 255 251 247 245 245 250 251 248 250 254 255 255 250 nan 249 246 240 236 239 238 234 235 241 253 255 258 261 267 266 265 263 258 257 258 261 264 266 269 272
271 270 270 268 270 273 276 277 279 281 286 287 283 278 276 278 282 283 285 284 281 275 266 259 252 247 247 248 249 251 255 254 250 247 249 246 253 266 271 268 271 271 268 267 261 260 260 259 257 253 253 252 254 254 254 258 260 258 254 251 254 254 251 247 239 236 232 228 234 248 248 255 261 265 262 271 261 259 258 258 260 261 263 266 269
273 275 274 275 277 281 280 280 281 284 288 287 281 276 276 280 284 286 282 289 279 268 262 253 242 240 245 249 253 257 268 260 242 239 241 250 271 276 274 266 267 268 269 269 269 263 260 264 266 264 262 258 258 257 255 257 256 259 257 254 254 253 252 249 243 240 236 235 233 232 239 250 258 263 265 273 270 266 263 261 260 261 263 264 264
280 280 276 279 280 280 279 283 283 286 289 288 281 276 275 274 277 283 289 288 269 259 250 242 240 243 244 252 265 262 262 265 263 256 252 264 276 275 266 265 261 263 265 262 270 274 271 270 269 270 268 264 262 258 259 258 256 257 260 257 253 249 250 249 246 245 240 238 243 250 263 263 265 269 275 271 270 268 268 266 263 262 262 262 262
282 281 280 280 281 281 283 286 287 288 290 288 282 281 274 271 280 289 295 284 266 251 235 237 248 256 249 255 260 262 268 275 275 268 264 264 268 263 259 259 259 262 265 271 277 282 286 278 274 274 269 267 264 260 263 260 257 255 254 255 251 250 252 254 254 255 248 240 241 249 275 272 273 268 263 273 275 271 269 271 271 266 262 264 265
280 282 283 283 283 285 286 287 287 287 288 287 285 279 271 278 290 293 292 285 262 243 237 244 255 255 257 259 258 261 269 269 266 265 262 275 272 267 266 271 271 273 278 288 294 293 288 285 286 280 275 271 268 266 265 264 257 256 250 245 245 247 253 256 256 257 254 248 243 233 230 255 263 265 258 257 271 274 274 276 279 275 272 269 270
280 286 286 284 284 287 289 289 286 287 288 286 282 279 280 288 294 294 290 281 254 236 238 243 251 253 252 255 263 266 264 259 265 266 275 285 284 276 280 282 290 296 301 307 309 300 293 288 282 274 271 270 271 262 262 267 258 252 246 237 232 241 253 261 263 265 265 254 243 242 230 236 255 264 262 257 259 277 278 282 281 287 283 282 278
271 284 287 286 286 289 292 289 284 284 284 285 288 284 282 289 296 293 282 268 250 242 233 230 237 240 243 253 265 264 255 261 264 283 287 283 277 275 277 291 308 311 310 303 292 287 283 283 275 265 263 264 266 257 253 253 253 241 235 227 227 245 262 267 266 264 266 254 246 245 236 244 248 254 261 258 248 264 286 285 285 287 288 292 283
275 279 284 286 287 288 286 280 277 279 283 289 290 285 283 288 293 287 270 262 251 239 228 225 227 232 248 256 260 256 nan 238 246 261 279 281 283 nan 284 295 305 297 286 285 288 293 293 289 284 273 283 279 274 265 257 251 244 234 229 226 227 238 258 261 253 256 265 256 250 234 229 240 251 248 246 252 251 253 286 287 289 285 287 289 292
276 275 281 288 292 286 280 273 269 273 288 293 294 292 289 289 289 279 263 254 242 233 229 227 231 243 260 266 254 255 239 231 228 259 272 281 284 280 282 298 293 286 284 285 289 284 291 300 296 290 282 284 277 258 245 244 245 240 234 230 233 229 222 231 239 253 264 258 253 250 230 238 255 253 250 248 253 258 291 293 291 286 280 288 286
284 292 295 290 282 272 273 276 289 311 308 297 297 301 300 288 277 271 259 242 235 231 235 237 242 256 259 260 249 246 248 248 248 253 280 282 278 277 280 286 290 285 287 289 287 291 285 294 301 298 288 290 286 259 240 245 247 249 240 234 228 218 223 239 247 253 250 243 237 234 236 247 250 253 253 252 253 257 265 264 277 276 279 283 283
295 294 287 278 284 290 294 291 302 315 298 297 297 300 298 290 276 266 256 239 229 227 236 243 249 252 253 258 245 238 242 262 272 279 282 284 282 286 286 292 292 290 290 285 279 282 287 291 285 283 291 291 287 273 244 241 253 252 246 239 225 219 228 233 238 248 250 237 227 239 251 249 256 262 255 255 254 253 259 261 259 261 260 261 262
279 282 289 295 295 293 294 296 296 302 302 303 306 303 302 288 273 266 251 236 227 235 244 248 252 250 252 254 242 239 261 272 275 279 283 288 287 288 286 288 290 289 287 282 282 277 285 291 287 279 285 288 282 276 255 241 255 256 248 239 218 215 220 229 239 251 248 245 234 242 251 249 255 259 260 258 257 255 252 256 258 259 263 263 255
275 278 285 286 287 295 297 291 287 292 305 310 298 297 291 286 281 282 267 247 237 244 252 262 258 254 258 250 250 258 253 257 268 276 280 285 284 285 285 286 287 284 278 269 272 275 279 283 287 273 272 284 292 278 268 251 249 249 244 232 227 220 221 229 236 237 230 233 250 246 244 248 247 245 250 256 258 252 251 249 251 254 254 254 256
280 280 286 293 292 290 294 288 289 300 303 298 283 284 286 296 295 278 269 250 244 253 260 267 263 264 256 249 242 251 252 261 277 283 287 289 285 284 281 277 276 276 271 266 264 274 279 279 283 281 275 268 261 269 260 261 253 250 236 221 226 230 231 233 238 236 231 234 234 243 250 248 251 244 241 246 254 256 255 258 259 256 253 245 247
281 285 280 278 253 272 290 303 307 306 303 306 301 299 304 302 275 282 272 259 264 264 268 264 268 266 262 264 269 274 277 281 285 288 287 282 280 279 274 268 271 274 277 277 276 274 272 277 279 271 273 264 259 254 242 251 263 240 217 215 220 227 236 238 241 240 235 230 231 240 248 257 255 255 248 242 252 259 260 262 265 262 253 255 247
302 317 318 310 300 300 306 309 311 305 305 312 309 300 302 319 299 300 270 267 271 273 265 260 264 265 272 283 292 293 293 290 281 275 273 275 273 274 277 280 276 273 273 277 283 275 266 270 273 258 255 267 266 270 253 241 219 240 254 218 212 226 244 242 241 235 232 226 232 243 249 264 271 268 263 258 255 259 254 254 256 258 242 252 254
316 316 316 308 310 309 308 307 307 306 302 303 303 297 253 292 301 277 281 268 259 268 265 259 260 274 287 294 290 287 281 267 270 269 268 268 273 275 281 284 280 281 272 261 272 270 272 277 276 277 266 256 267 267 270 234 248 219 224 nan nan nan nan 226 nan nan 226 228 230 235 244 252 258 260 265 264 259 250 250 247 255 260 246 222 247
299 309 311 311 304 307 310 306 305 300 297 293 290 247 235 271 279 280 276 276 271 256 251 252 255 266 278 266 269 280 272 268 265 263 260 262 274 282 280 282 287 278 280 275 261 265 267 262 268 274 283 nan 267 268 269 273 257 266 219 217 nan nan nan nan nan nan nan 240 233 237 242 250 254 253 246 255 250 253 247 247 250 258 270 246 245
306 312 313 305 303 312 310 306 302 300 289 270 255 236 250 264 268 257 261 253 243 247 247 243 256 267 nan nan 274 271 275 276 271 266 265 271 267 276 278 272 272 277 279 279 279 276 266 266 280 282 284 nan 285 279 269 279 275 259 nan nan nan nan nan nan nan 232 231 242 235 237 249 253 256 262 257 248 249 249 251 251 246 245 241 240 236
305 308 305 304 302 301 298 292 289 284 275 257 247 254 267 275 272 269 269 264 259 252 256 nan nan nan nan nan nan nan 278 274 271 270 272 270 279 266 264 265 268 279 273 276 269 267 264 263 271 281 278 278 293 283 279 267 277 277 274 249 nan nan nan nan nan nan 245 253 255 250 250 258 259 259 255 255 256 256 254 257 nan 244 240 238 238
306 302 300 302 299 296 291 287 283 273 260 251 252 260 262 261 263 263 266 271 264 239 nan nan nan nan 268 275 nan nan 279 nan nan nan nan nan 269 264 267 266 259 256 257 262 265 271 269 267 267 267 277 280 279 281 295 293 276 274 271 257 248 nan nan nan nan nan nan 245 249 251 251 256 259 261 264 265 264 260 254 252 248 244 245 245 nan
304 305 304 298 296 296 289 281 277 269 256 248 255 250 257 249 251 254 261 264 262 nan 256 255 nan nan nan nan nan nan nan nan nan nan nan nan 258 265 261 257 259 258 255 258 260 261 260 255 261 263 266 273 279 290 294 299 295 292 274 265 257 nan nan nan nan nan nan nan 261 258 256 253 261 258 263 267 265 262 261 256 251 247 252 256 255
310 313 317 307 293 291 286 275 276 266 254 251 255 238 250 255 257 258 258 251 254 257 256 263 nan nan 259 nan nan nan nan nan nan nan nan nan nan nan nan nan nan nan nan nan 248 251 259 261 258 259 265 264 275 282 285 297 289 293 282 270 267 261 256 253 nan nan nan nan 258 264 266 255 259 257 258 260 258 257 260 nan nan nan nan nan nan
313 313 324 327 311 295 292 283 276 258 252 248 243 236 246 250 254 254 259 249 nan nan nan nan nan nan 261 nan nan nan nan nan nan nan nan nan nan nan nan nan nan nan nan 248 246 244 244 247 251 259 262 260 256 276 288 293 290 290 286 291 279 270 nan nan nan nan nan nan 278 282 276 277 270 251 252 253 251 nan nan nan nan nan nan nan nan
311 309 316 331 332 312 295 288 275 256 256 262 246 241 240 241 244 245 254 248 nan nan nan nan nan nan nan nan nan nan nan nan nan nan nan nan nan nan nan nan nan nan nan 239 237 238 235 239 240 244 246 253 253 252 255 262 271 272 276 285 290 nan nan nan nan nan nan nan nan 274 265 258 267 269 248 249 nan nan nan nan nan nan nan nan nan